www.pogodaiklimat.ru

Погода и климат >> Архив погоды >> Бразилия >> Сеара >> Кампус-Салис


ПОГОДА в Кампус-Салисе

  • Прогноз погоды в Кампус-Салисе
  • Монитор погоды в Кампус-Салисе

АРХИВ ПОГОДЫ в Кампус-Салисе

Время (UTC), дата Ветер
(напр.,м/с)
 
Видим.   Явления Облачность Т
(С)
Тd
(С)
f
(%)
Тe
(С)
Тes
(С)
Комфортность P
(гПа)
Po
(гПа)
Тmin
(С)
Tmax
(С)
R
(мм)
R24
(мм)
S
(см)
19 8.02 ЮВ 2
{4}
н/о н/о +33.8 +18.3 40 +38 +38 очень
душно
1004.7 942.1
20 8.02 В 2
{4}
н/о н/о +33.2 +19.1 43 +38 +38 очень
душно
1005.1 942.3
21 8.02 СВ 2
{4}
н/о н/о +31.0 +19.0 49 +36 +36 очень
душно
1006.2 942.9
22 8.02 СВ 2
{4}
н/о н/о +28.7 +19.8 59 +35 +35 очень
душно
1007.3 943.5
23 8.02 В 2
{4}
н/о н/о +27.0 +19.8 65 +33 +33 очень
душно
1008.9 944.6
00 9.02 В 2 н/о н/о +26.2 +19.6 67 +32 +32 очень
душно
1009.6 945.8 +35.5
01 9.02 В 1
{2}
н/о н/о +25.2 +19.9 72 +31 +31 очень
душно
1011.3 946.5
02 9.02 В 1
{1}
н/о н/о +24.2 +19.9 77 +30 +30 очень
душно
1011.3 946.3
03 9.02 В 1
{1}
н/о н/о +23.2 +20.0 82 +30 +30 очень
душно
1011.2 946.0
04 9.02 ЮВ 1
{1}
н/о н/о +23.3 +20.1 82 +30 +30 очень
душно
1011.1 945.9
05 9.02 В 1
{1}
н/о н/о +22.4 +20.1 87 +29 +29 очень
душно
1010.9 945.5
06 9.02 ЮВ 2 н/о н/о +22.1 +19.9 87 +28 +28 душно 1010.0 945.3
07 9.02 В 1
{2}
н/о н/о +21.7 +19.6 88 +27 +27 душно 1010.6 945.1
08 9.02 В 1
{2}
н/о н/о +21.7 +19.5 87 +27 +27 душно 1011.0 945.5
09 9.02 В 1
{2}
н/о н/о +21.6 +20.1 91 +27 +27 душно 1011.7 946.1
10 9.02 В 1
{2}
н/о н/о +22.7 +19.9 84 +29 +29 очень
душно
1012.3 946.9
11 9.02 В 2
{3}
н/о н/о +24.8 +19.7 73 +30 +30 душно 1012.6 947.6
12 9.02 В 5 н/о н/о +27.2 +20.1 65 +33 +33 очень
душно
1011.4 947.7 +21.4
13 9.02 В 2
{5}
н/о н/о +29.7 +19.8 55 +36 +36 очень
душно
1011.3 947.4
14 9.02 В 2
{5}
н/о н/о +31.3 +19.4 49 +37 +37 очень
душно
1010.7 947.2
15 9.02 В 2
{5}
н/о н/о +32.7 +19.2 45 +38 +38 очень
душно
1009.8 946.6
16 9.02 В 2
{5}
н/о н/о +33.7 +17.7 39 +38 +38 очень
душно
1008.8 945.9
17 9.02 В 2
{5}
н/о н/о +33.3 +17.4 39 +37 +37 очень
душно
1008.0 945.1
18 9.02 В 4 н/о н/о +33.9 +17.2 37 +37 +37 очень
душно
1006.5 944.4
19 9.02 В 2
{5}
н/о н/о +32.2 +16.9 40 +36 +36 очень
душно
1007.2 944.1
20 9.02 СВ 2
{5}
н/о н/о +31.8 +16.3 39 +35 +35 очень
душно
1007.2 944.0
21 9.02 СВ 2
{4}
н/о н/о +30.0 +17.5 47 +34 +34 очень
душно
1007.8 944.2
22 9.02 СВ 2
{3}
н/о н/о +28.0 +17.2 52 +32 +32 душно 1008.9 944.8
23 9.02 СВ 2
{3}
н/о н/о +26.8 +17.8 58 +31 +31 душно 1010.0 945.6
00 10.02 ЮВ 2 н/о н/о +26.1 +17.5 59 +30 +30 душно 1010.2 946.3 +34.9
01 10.02 Ю 1
{2}
н/о н/о +24.6 +17.8 66 +29 +29 душно 1011.5 946.6
02 10.02 В 1
{2}
н/о н/о +23.8 +17.9 70 +28 +28 душно 1011.7 946.6
03 10.02 ЮВ 1
{1}
н/о н/о +23.0 +18.0 73 +28 +28 душно 1011.6 946.3
04 10.02 В 1
{1}
н/о н/о +22.4 +18.1 77 +28 +28 душно 1011.3 945.9
05 10.02 штиль 0
{1}
н/о н/о +22.1 +18.1 78 +27 +27 душно 1011.2 945.8
06 10.02 В 2 н/о н/о +22.2 +17.9 77 +27 +27 душно 1010.3 945.6
07 10.02 В 1
{2}
н/о н/о +22.2 +18.3 79 +27 +27 душно 1011.4 946.0
08 10.02 В 1
{3}
н/о н/о +21.6 +18.4 82 +26 +26 душно 1011.7 946.1
09 10.02 В 1
{2}
н/о н/о +21.6 +18.7 84 +26 +26 душно 1012.2 946.6
10 10.02 В 1
{2}
н/о н/о +24.4 +19.6 75 +30 +30 очень
душно
1012.1 947.1
11 10.02 В 2
{3}
н/о н/о +26.4 +20.2 69 +33 +33 очень
душно
1012.2 947.6
12 10.02 В 3 н/о н/о +28.0 +20.4 63 +34 +34 очень
душно
1011.3 947.7 +21.2
13 10.02 В 2
{4}
н/о н/о +28.4 +19.7 59 +34 +34 очень
душно
1011.9 947.7
14 10.02 В 2
{4}
н/о н/о +31.0 +18.7 48 +36 +36 очень
душно
1011.0 947.4
15 10.02 ЮВ 3
{5}
н/о н/о +32.0 +16.6 40 +35 +35 очень
душно
1010.1 946.8
16 10.02 ЮВ 2
{4}
н/о н/о +32.5 +15.8 37 +35 +35 душно 1009.2 946.0
17 10.02 ЮВ 3
{5}
н/о н/о +32.5 +13.5 32 +34 +34 очень
жарко
1008.3 945.2
18 10.02 В 4 н/о н/о +33.2 +14.4 32 +35 +35 душно 1007.0 944.7
19 10.02 В 2
{5}
н/о н/о +34.4 +14.4 30 +36 +36 душно 1006.8 944.2
20 10.02 В 2
{5}
н/о н/о +33.4 +14.5 32 +35 +35 душно 1007.2 944.3
21 10.02 В 1
{4}
н/о н/о +30.9 +14.6 37 +33 +33 душно 1008.3 944.9
22 10.02 В 1
{3}
н/о н/о +28.3 +15.1 45 +31 +31 душно 1009.3 945.3
23 10.02 ЮВ 1
{2}
н/о н/о +27.2 +15.3 48 +30 +30 душно 1010.3 946.0
00 11.02 В 2 н/о н/о +26.0 +15.0 51 +29 +29 душно 1011.2 947.2 +35.2
01 11.02 В 1
{1}
н/о н/о +24.8 +15.4 56 +28 +28 жарко 1012.3 947.4
02 11.02 ЮВ 1
{1}
н/о н/о +25.5 +15.9 55 +29 +29 душно 1012.2 947.4
03 11.02 В 1
{1}
н/о н/о +23.9 +16.6 64 +27 +27 жарко 1012.3 947.2
04 11.02 В 1
{2}
н/о н/о +23.9 +17.6 68 +28 +28 душно 1012.3 947.2
05 11.02 В 1
{2}
н/о н/о +24.0 +18.4 71 +28 +28 душно 1012.1 947.0
06 11.02 В 2 н/о н/о +24.1 +18.6 71 +29 +29 душно 1011.3 946.9
07 11.02 В 1
{2}
н/о н/о +23.9 +18.7 73 +29 +29 душно 1012.7 947.5
08 11.02 В 1
{2}
н/о н/о +23.4 +19.2 77 +30 +30 очень
душно
1013.2 947.9
09 11.02 В 1
{2}
н/о н/о +23.1 +19.6 81 +30 +30 очень
душно
1013.7 948.3
10 11.02 ЮВ 2
{3}
н/о н/о +24.1 +18.3 70 +29 +29 душно 1014.0 948.8
11 11.02 ЮВ 2
{5}
н/о н/о +26.8 +18.2 59 +31 +31 душно 1014.0 949.4
12 11.02 В 6 н/о н/о +28.7 +17.3 50 +33 +33 очень
душно
1013.1 949.6 +22.9
13 11.02 В 3
{6}
н/о н/о +30.8 +17.0 44 +35 +35 очень
душно
1013.3 949.5
14 11.02 ЮВ 3
{6}
н/о н/о +31.1 +17.1 43 +35 +35 очень
душно
1012.9 949.2
15 11.02 В 3
{6}
н/о н/о +32.5 +16.8 39 +36 +36 очень
душно
1011.4 948.1
16 11.02 ЮВ 3
{6}
н/о н/о +34.1 +16.3 35 +37 +37 очень
душно
1009.7 946.8
17 11.02 ЮВ 3
{6}
н/о н/о +33.6 +15.5 34 +36 +36 очень
душно
1008.6 945.7
18 11.02 ЮВ 5 н/о н/о +33.6 +15.5 34 +36 +36 очень
душно
1007.3 945.1
19 11.02 ЮВ 3
{6}
н/о н/о +33.7 +15.8 34 +36 +36 очень
душно
1007.6 944.8
20 11.02 ЮВ 3
{5}
н/о н/о +33.3 +14.8 33 +35 +35 душно 1007.3 944.4
21 11.02 В 2
{5}
н/о н/о +31.5 +15.5 38 +34 +34 душно 1008.3 945.0
22 11.02 В 1
{3}
н/о н/о +29.6 +16.0 44 +33 +33 душно 1009.1 945.4
23 11.02 ЮВ 1
{2}
н/о н/о +27.9 +16.4 50 +31 +31 душно 1010.3 946.1
00 12.02 В 2 н/о н/о +26.5 +17.0 56 +30 +30 душно 1010.3 946.5 +35.5
01 12.02 ЮВ 1
{2}
н/о н/о +25.6 +16.7 58 +29 +29 душно 1011.6 946.9
02 12.02 В 1
{2}
н/о н/о +24.6 +16.9 62 +28 +28 душно 1011.9 946.9
03 12.02 В 1
{2}
н/о н/о +24.4 +16.9 63 +28 +28 душно 1011.9 946.9
04 12.02 В 1
{5}
н/о н/о +26.3 +15.8 52 +29 +29 жарко 1011.2 946.6
05 12.02 ЮВ 1
{2}
н/о н/о +24.4 +16.1 60 +28 +28 душно 1011.5 946.5
06 12.02 ЮВ 2 н/о н/о +23.9 +16.3 62 +27 +27 жарко 1011.0 946.6
07 12.02 В 1
{2}
н/о н/о +23.4 +16.7 66 +28 +28 душно 1012.6 947.3
08 12.02 В 1
{2}
н/о н/о +22.9 +16.9 69 +28 +28 душно 1013.1 947.7
09 12.02 В 1
{2}
н/о н/о +22.9 +17.9 73 +28 +28 душно 1013.7 948.3
10 12.02 ЮВ 2
{4}
н/о н/о +24.4 +17.3 65 +28 +28 душно 1013.9 948.8
11 12.02 ЮВ 3
{5}
н/о н/о +26.0 +16.8 57 +30 +30 душно 1014.3 949.5
12 12.02 ЮВ 5 н/о н/о +28.0 +16.1 48 +31 +31 душно 1013.5 949.8 +22.8
13 12.02 ЮВ 2
{5}
н/о н/о +29.6 +15.4 42 +32 +32 душно 1013.6 949.6
14 12.02 ЮВ 2
{5}
н/о н/о +30.9 +15.1 38 +33 +33 душно 1012.4 948.7
15 12.02 ЮВ 2
{5}
н/о н/о +32.2 +15.0 35 +34 +34 душно 1011.0 947.7
16 12.02 ЮВ 2
{5}
н/о н/о +33.7 +15.6 34 +36 +36 очень
душно
1009.3 946.4
17 12.02 ЮВ 2
{5}
н/о н/о +34.4 +16.2 34 +37 +37 очень
душно
1008.2 945.5
18 12.02 ЮВ 4 н/о н/о +33.5 +14.8 32 +35 +35 душно 1007.1 944.9
19 12.02 В 2
{5}
н/о н/о +34.9 +13.8 28 +36 +36 душно 1006.8 944.3
20 12.02 ЮВ 2
{5}
н/о н/о +34.1 +15.1 32 +36 +36 душно 1007.0 944.3
21 12.02 В 1
{3}
н/о н/о +32.4 +15.5 36 +35 +35 душно 1008.0 944.9
22 12.02 В 1
{4}
н/о н/о +30.8 +16.0 41 +34 +34 очень
душно
1008.9 945.4
23 12.02 В 1
{3}
н/о н/о +28.7 +16.1 46 +32 +32 душно 1010.3 946.3
00 13.02 В 2 н/о н/о +27.8 +17.3 53 +32 +32 душно 1010.9 947.3 +35.6
01 13.02 ЮВ 1
{2}
н/о н/о +27.0 +18.0 58 +32 +32 очень
душно
1012.4 947.9
02 13.02 ЮВ 1
{2}
н/о н/о +25.4 +16.9 59 +29 +29 душно 1012.2 947.4
03 13.02 Ю 1
{2}
н/о н/о +24.3 +17.1 64 +28 +28 душно 1012.6 947.5
04 13.02 ЮВ 1
{2}
н/о н/о +23.7 +17.4 68 +28 +28 душно 1012.1 946.9
05 13.02 ЮВ 1
{1}
н/о н/о +23.8 +17.6 68 +28 +28 душно 1011.7 946.6
06 13.02 В 2 н/о н/о +23.2 +17.8 72 +29 +29 душно 1010.8 946.3
07 13.02 В 1
{2}
н/о н/о +23.1 +18.3 74 +29 +29 очень
душно
1012.0 946.7
08 13.02 В 1
{2}
н/о н/о +22.9 +18.7 77 +29 +29 очень
душно
1012.9 947.5
09 13.02 В 1
{2}
н/о н/о +22.5 +18.9 80 +28 +28 душно 1013.5 948.0
10 13.02 В 1
{2}
н/о н/о +24.4 +20.0 76 +30 +30 очень
душно
1013.6 948.5
11 13.02 В 2
{4}
н/о н/о +25.8 +21.3 76 +33 +33 очень
душно
1014.1 949.3
12 13.02 СВ 4 н/о н/о +26.3 +21.5 75 +34 +34 очень
душно
1013.9 949.8 +22.5
13 13.02 В 2
{4}
н/о н/о +27.8 +21.4 68 +35 +35 очень
душно
1014.0 949.6
14 13.02 В 1
{3}
н/о н/о +30.0 +20.7 57 +37 +37 очень
душно
1012.7 948.8
15 13.02 В 1
{4}
н/о н/о +31.1 +20.5 53 +38 +38 очень
душно
1011.3 947.7
16 13.02 В 1
{4}
н/о н/о +32.6 +19.0 45 +38 +38 очень
душно
1010.0 946.8
17 13.02 В 2
{4}
н/о н/о +32.8 +18.2 42 +37 +37 очень
душно
1008.8 945.7
18 13.02 В 3 н/о н/о +32.5 +19.7 47 +38 +38 очень
душно
1007.1 944.7
19 13.02 В 2
{4}
н/о н/о +31.6 +20.3 51 +38 +38 очень
душно
1007.9 944.6
20 13.02 В 2
{4}
н/о н/о +30.5 +18.4 48 +35 +35 очень
душно
1008.2 944.7
21 13.02 СВ 2
{4}
н/о н/о +29.3 +20.0 57 +36 +36 очень
душно
1009.5 945.7
22 13.02 СВ 2
{3}
н/о н/о +28.5 +20.2 61 +35 +35 очень
душно
1010.8 946.7
23 13.02 СВ 2
{5}
н/о н/о +27.3 +20.4 66 +34 +34 очень
душно
1012.1 947.7
00 14.02 СВ 4 н/о н/о +25.9 +20.5 72 +32 +32 очень
душно
1012.7 948.6 +34.3
01 14.02 СВ 3
{5}
н/о н/о +24.6 +20.5 78 +31 +31 очень
душно
1015.1 949.9
02 14.02 В 3
{7}
н/о н/о +22.5 +18.5 78 +28 +28 душно 1015.8 950.1
03 14.02 СВ 2
{6}
н/о н/о +22.3 +20.0 87 +28 +28 душно 1015.8 950.1
04 14.02 С 2
{4}
н/о н/о +21.8 +21.3 97 +28 +28 душно 1016.0 950.2 1
05 14.02 С 1
{4}
н/о н/о +21.5 +20.9 96 +27 +27 душно 1014.8 949.0 1
06 14.02 СВ 3 н/о н/о +21.6 +20.9 96 +27 +27 душно 1013.9 948.8 0.2
07 14.02 В 2
{3}
н/о н/о +21.6 +21.0 96 +27 +27 душно 1014.1 948.4
08 14.02 СВ 3
{4}
н/о н/о +21.5 +20.6 95 +27 +27 душно 1013.5 947.8
09 14.02 СВ 2
{5}
н/о н/о +21.6 +20.6 94 +27 +27 душно 1013.9 948.2
10 14.02 СВ 2
{4}
н/о н/о +21.9 +20.6 92 +28 +28 душно 1014.1 948.4
11 14.02 В 2
{4}
н/о н/о +23.0 +20.4 85 +30 +30 очень
душно
1014.7 949.2
12 14.02 СВ 2 н/о н/о +25.2 +20.2 74 +31 +31 очень
душно
1013.8 949.5 +21.4 2
13 14.02 СВ 1
{3}
н/о н/о +27.7 +19.7 62 +34 +34 очень
душно
1013.9 949.5
14 14.02 В 1
{3}
н/о н/о +29.8 +19.9 55 +36 +36 очень
душно
1013.0 949.1
15 14.02 З 1
{3}
н/о н/о +31.8 +17.6 43 +36 +36 очень
душно
1011.8 948.3
16 14.02 СЗ 2
{4}
н/о н/о +32.0 +18.6 45 +37 +37 очень
душно
1011.1 947.7
17 14.02 З 2
{4}
н/о н/о +33.0 +19.0 44 +38 +38 очень
душно
1009.5 946.4
18 14.02 Ю 4 н/о н/о +28.0 +19.9 61 +34 +34 очень
душно
1009.8 946.3
19 14.02 Ю 2
{6}
н/о н/о +23.0 +21.3 90 +31 +31 очень
душно
1011.9 946.6 1
20 14.02 СЗ 1
{4}
н/о н/о +22.0 +20.0 88 +28 +28 душно 1013.3 947.7 2
21 14.02 З 1
{4}
н/о н/о +21.8 +20.9 95 +28 +28 душно 1013.9 948.2 0.8
22 14.02 Ю 1
{2}
н/о н/о +22.3 +21.3 94 +29 +29 очень
душно
1012.7 947.2 0.2
23 14.02 В 1
{2}
н/о н/о +22.3 +21.5 95 +29 +29 очень
душно
1013.8 948.2
00 15.02 В 1 н/о н/о +22.1 +21.2 95 +29 +29 очень
душно
1014.1 949.1 +33.4 4
01 15.02 В 1
{2}
н/о н/о +22.1 +21.3 95 +29 +29 очень
душно
1015.6 949.9 0.2
02 15.02 ЮВ 1
{2}
н/о н/о +21.9 +21.0 95 +28 +28 душно 1015.8 950.0
03 15.02 ЮВ 1
{1}
н/о н/о +21.6 +20.6 94 +27 +27 душно 1015.0 949.2
04 15.02 В 1
{2}
н/о н/о +21.5 +20.7 95 +27 +27 душно 1014.7 948.9
05 15.02 Ю 1
{1}
н/о н/о +21.4 +20.7 96 +27 +27 душно 1014.0 948.2
06 15.02 ЮВ 1 н/о н/о +21.3 +20.8 97 +27 +27 душно 1013.0 947.9
07 15.02 В 1
{2}
н/о н/о +21.0 +20.6 98 +27 +27 душно 1014.1 948.2
08 15.02 ЮВ 1
{2}
н/о н/о +20.9 +20.3 96 +27 +27 душно 1014.4 948.5
09 15.02 штиль 0
{1}
н/о н/о +20.5 +20.1 98 +25 +25 комфорт 1014.8 948.8
10 15.02 В 1
{2}
н/о н/о +21.5 +20.3 93 +27 +27 душно 1015.3 949.5
11 15.02 В 2
{3}
н/о н/о +24.7 +21.6 83 +32 +32 очень
душно
1014.9 949.8
12 15.02 СВ 3 н/о н/о +27.6 +21.7 70 +35 +35 очень
душно
1013.7 949.9 +20.5 4
13 15.02 В 1
{4}
н/о н/о +28.5 +21.8 67 +37 +37 очень
душно
1014.0 949.7
14 15.02 В 1
{4}
н/о н/о +29.4 +21.6 63 +37 +37 очень
душно
1012.9 948.9
15 15.02 В 2
{4}
н/о н/о +31.0 +20.1 52 +37 +37 очень
душно
1011.7 948.1
17 15.02 СВ 1
{3}
н/о н/о +33.3 +20.0 46 +40 +40 очень
душно
1007.9 945.0
18 15.02 В 3 н/о н/о +32.9 +18.4 42 +37 +37 очень
душно
1006.8 944.5

 

Местоположение метеостанции Кампус-Салис (Сеара, Бразилия): широта -7.08 долгота -40.37 высота над уровнем моря 574 м.

В архиве по умолчанию представлена погода в Кампус-Салисе за последнюю неделю. Архивные данные за месяц целиком и за предыдущие месяцы, начиная с января 2011 года, Вы можете получить, выбрав интересующий диапазон дат из раскрывающегося списка и нажав кнопку "Ввод!".


*Определитесь, кто Вы:
робот инопланетянин человек

Внимание! Время в таблицах - всемирное. Для получения местного времени необходимо прибавить поправку, которая равна -3 ч.

Смотрите также архив погоды в соседних городах и на ближайших метеорологических станциях:

Погода в Орикури (, Бразилия) (63 км)
Погода в Пики (Пиауи, Бразилия) (114 км)
Погода в Тауа (Сеара, Бразилия) (118 км)
Погода в Тауа (Сеара, Бразилия) (120 км)
Погода в Барбалье (Сеара, Бразилия) (121 км)
Погода в Пикусе (Пиауи, Бразилия) (123 км)
Погода в Барбалье (Сеара, Бразилия) (124 км)
Погода в Игуату (Сеара, Бразилия) (143 км)
Погода в Паулистане (Пиауи, Бразилия) (145 км)
Погода в Валенса-ду-Пиауи (Пиауи, Бразилия) (168 км)

Пояснения к столбцам:

Ветер - указаны скорость ветра в м/с - средняя за 10 мин, порывы в срок и между сроками (в фигурных скобках) и направление, откуда дует ветер: С - северный, СВ - северо-восточный, В - восточный, ЮВ - юго-восточный, Ю - южный, ЮЗ - юго-западный, З - западный, СЗ - северо-западный.
Видимость - горизонтальная дальность видимости в метрах или километрах. При видимости от 1 до 10 км при отсутствии осадков обычно наблюдается дымка, при ухудшении видимости до 1 км и менее - туман. В сухую погоду видимость может ухудшаться дымом, пылью или мглою.
Явления - указаны атмосферные явления, наблюдавшиеся в срок или в последний час перед сроком; фигурными скобками обозначены явления, наблюдавшиеся между сроками (за 1-3 часа до срока); квадратными скобками обозначены град или гололедные отложения с указанием их диаметра в мм.
Облачность - указаны через наклонную черту общая и нижняя облачность в баллах и высота нижней границы облаков в метрах; квадратными скобками обозначены формы облаков: Ci - перистые, Cs - перисто-слоистые, Cc - перисто-кучевые, Ac - высококучевые, As - высокослоистые, Sc - слоисто-кучевые, Ns - слоисто-дождевые, Cu - кучевые, Cb - кучево-дождевые. Подробнее классификацию облаков см. в Атласе облаков (PDF).
T - Температура воздуха - температура, измеренная на высоте 2 м над землей.
Td - Температура точки росы - температура, при понижении до которой содержащийся в воздухе водяной пар достигнет насыщения.
f - Относительная влажность воздуха - влажноcть воздуха, измеренная на высоте 2 м над землей.
Te - Эффективная температура - температура, которую ощущает одетый по сезону человек в тени. Характеристика душности погоды. При расчете учитывается влияние влажности воздуха и скорости ветра на теплоощущения человека.
Tes - Эффективная температура на солнце - температура, которую ощущает человек, с поправкой на солнечный нагрев. Характеристика знойности погоды. Зависит от высоты солнца над горизонтом, облачности и скорости ветра. Ночью, в пасмурную погоду, а также при ветре 12 м/с и более поправка равна нулю.
P - Атмосферное давление - приведенное к уровню моря атмосферное давление.
Po - Атмосферное давление - измеренное на уровне метеостанции атмосферное давление.
Tmin - Минимальная температура - минимум температуры воздуха на высоте 2 м над землей.
Tmax - Максимальная температура - максимум температуры воздуха на высоте 2 м над землей.
R - Количество осадков - Количество выпавших осадков за период времени, мм. При наведении курсора мыши на число - период времени, за который выпало указанное количество осадков.
R24 - Количество осадков - Количество выпавших осадков за 24 часа, мм.
S - Снежный покров - Высота снежного покрова, см. При наведении курсора мыши на число - состояние снежного покрова и степень покрытия местности в баллах.